User: anonymous   Login
Location: Ciserano
(45.5833°N, 9.6000°E)
Time: 21:24:05
(UTC+00:00)
Language:

ATLAS 3B R/B - Orbit

View from above orbital plane
View from above orbital plane
View from above satellite
View from above satellite

Ground track
Ground track

The orbit data is extracted from the following two-line orbital elements,

1 28538U 05004B   21055.15966268 0.00000000  00000-0  00000-0 0    04
2 28538  63.8280 138.9883 0122816  21.7291 338.2709 13.43140861    00
Epoch (UTC): 24 February 2021 03:49:54
Eccentricity: 0.0122816
inclination: 63.8280°
perigee height: 1006 km
apogee height: 1189 km
right ascension of ascending node: 138.9883°
argument of perigee: 21.7291°
revolutions per day: 13.43140861
mean anomaly at epoch: 338.2709°
orbit number at epoch: 0

The dashed part of the orbit path shows where the satellite is in the earth's shadow,  

DLR